timestamp,surface_pressure_avg,surface_temp_avg,battery_voltage,lat,long
2021-07-12 00:09:01+00:00,340.7747,13.2,13.21,47.84626,-54.09684
2021-07-12 00:19:01+00:00,345.543,13.27,12.81,47.84626,-54.09684
2021-07-12 00:29:01+00:00,344.95300000000015,13.3,12.81,47.84626,-54.09684
2021-07-12 00:39:01+00:00,347.023,13.37,12.81,47.84626,-54.09684
2021-07-12 00:49:01+00:00,348.70300000000015,13.39,12.81,47.84626,-54.09684
2021-07-12 00:59:01+00:00,350.8312,13.34,12.81,47.84626,-54.09684
2021-07-12 01:09:01+00:00,350.7963,13.36,12.81,47.84626,-54.09684
2021-07-12 01:19:01+00:00,351.0479,13.31,12.73,47.84626,-54.09684
2021-07-12 01:29:01+00:00,351.7429,13.3,12.73,47.84626,-54.09684
2021-07-12 01:39:01+00:00,350.3896,13.29,12.73,47.84626,-54.09684
2021-07-12 01:49:01+00:00,351.8696,13.3,12.73,47.84626,-54.09684
2021-07-12 01:59:01+00:00,350.3047,13.3,12.73,47.84626,-54.09684
2021-07-12 02:09:01+00:00,344.3196,13.3,12.73,47.84626,-54.09684
2021-07-12 02:19:01+00:00,340.848,13.3,12.73,47.84626,-54.09684
2021-07-12 02:29:01+00:00,338.5096,13.2,12.73,47.84626,-54.09684
2021-07-12 02:39:01+00:00,335.7097,13.2,12.73,47.84626,-54.09684
2021-07-12 02:49:01+00:00,328.8013,13.2,12.73,47.84626,-54.09684
2021-07-12 02:59:01+00:00,327.1097,13.2,12.73,47.84626,-54.09684
2021-07-12 03:09:01+00:00,324.46299999999997,13.2,12.73,47.84626,-54.09684
2021-07-12 03:19:01+00:00,318.8079,13.2,12.73,47.84626,-54.09684
2021-07-12 03:29:01+00:00,312.1497,13.21,12.73,47.84626,-54.09684
2021-07-12 03:39:01+00:00,307.983,13.22,12.73,47.84626,-54.09684
2021-07-12 03:49:01+00:00,302.5447,13.21,12.73,47.84626,-54.09684
2021-07-12 03:59:01+00:00,295.988,13.22,12.73,47.84626,-54.09684
2021-07-12 04:09:01+00:00,284.7814,13.25,12.73,47.84626,-54.09684
2021-07-12 04:19:00+00:00,272.643,13.24,12.73,47.84626,-54.09684
2021-07-12 04:29:00+00:00,263.4481,13.24,12.73,47.84626,-54.09684
2021-07-12 04:39:00+00:00,256.0914,13.25,12.73,47.84626,-54.09684
2021-07-12 04:49:00+00:00,242.6881,13.29,12.73,47.84626,-54.09684
2021-07-12 04:59:00+00:00,232.6031,13.35,12.73,47.84626,-54.09684
2021-07-12 05:09:00+00:00,228.4631,13.41,12.73,47.84626,-54.09684
2021-07-12 05:19:01+00:00,220.5131,13.54,12.73,47.84626,-54.09684
2021-07-12 05:29:01+00:00,210.0397,13.68,12.73,47.84626,-54.09684
2021-07-12 05:39:01+00:00,206.5781,13.7,12.73,47.84626,-54.09684
2021-07-12 05:49:01+00:00,204.7465,13.7,12.73,47.84626,-54.09684
2021-07-12 05:59:01+00:00,197.7281,13.7,12.73,47.84626,-54.09684
2021-07-12 06:09:01+00:00,190.2932,13.7,12.73,47.84626,-54.09684
2021-07-12 06:19:01+00:00,190.5281,13.7,12.73,47.84626,-54.09684
2021-07-12 06:29:01+00:00,188.3848,13.7,12.73,47.84626,-54.09684
2021-07-12 06:39:01+00:00,180.0898,13.7,12.73,47.84626,-54.09684
2021-07-12 06:49:01+00:00,175.1132,13.7,12.73,47.84626,-54.09684
2021-07-12 06:59:01+00:00,181.8031,13.7,12.73,47.84626,-54.09684
2021-07-12 07:09:01+00:00,186.6831,13.7,12.73,47.84626,-54.09684
2021-07-12 07:19:01+00:00,186.3048,13.7,12.73,47.84626,-54.09684
2021-07-12 07:29:01+00:00,190.7482,13.7,12.73,47.84626,-54.09684
2021-07-12 07:39:01+00:00,190.7865,13.7,12.73,47.84626,-54.09684
2021-07-12 07:49:01+00:00,193.2664,13.7,12.73,47.84626,-54.09684
2021-07-12 07:59:01+00:00,197.8414,13.72,12.73,47.84626,-54.09684
2021-07-12 08:09:01+00:00,199.9598,13.76,12.73,47.84626,-54.09684
2021-07-12 08:19:01+00:00,204.2581,13.78,12.73,47.84626,-54.09684
2021-07-12 08:29:01+00:00,208.2431,13.79,12.73,47.84626,-54.09684
2021-07-12 08:39:01+00:00,210.0015,13.8,12.73,47.84626,-54.09684
2021-07-12 08:49:01+00:00,217.5697,13.8,12.73,47.84626,-54.09684
2021-07-12 08:59:01+00:00,223.5731,13.8,12.73,47.84626,-54.09684
2021-07-12 09:09:01+00:00,226.9181,13.8,12.73,47.84626,-54.09684
2021-07-12 09:19:01+00:00,232.1531,13.8,12.73,47.84626,-54.09684
2021-07-12 09:29:01+00:00,236.9298,13.83,12.73,47.84626,-54.09684
2021-07-12 09:39:01+00:00,236.7964,13.85,12.73,47.84626,-54.09684
2021-07-12 09:49:01+00:00,239.6881,13.86,12.73,47.84626,-54.09684
2021-07-12 09:59:01+00:00,240.9498,13.86,12.73,47.84626,-54.09684
2021-07-12 10:09:01+00:00,242.4698,13.86,12.73,47.84626,-54.09684
2021-07-12 10:19:01+00:00,248.3864,13.86,12.73,47.84626,-54.09684
2021-07-12 10:29:01+00:00,256.6597,13.86,12.73,47.84626,-54.09684
2021-07-12 10:39:01+00:00,258.4981,13.87,12.73,47.84626,-54.09684
2021-07-12 10:49:01+00:00,261.9631,13.87,12.73,47.84626,-54.09684
2021-07-12 10:59:01+00:00,270.3164,13.85,12.73,47.84626,-54.09684
2021-07-12 11:09:01+00:00,280.798,13.8,12.73,47.84626,-54.09684
2021-07-12 11:19:01+00:00,286.8697,13.8,13.29,47.84626,-54.09684
2021-07-12 11:29:01+00:00,296.4814,13.7,13.29,47.84626,-54.09684
2021-07-12 11:39:01+00:00,301.7047,13.7,13.29,47.84626,-54.09684
2021-07-12 11:49:01+00:00,305.653,13.73,13.29,47.84626,-54.09684
2021-07-12 11:59:01+00:00,308.118,13.8,13.29,47.84626,-54.09684
2021-07-12 12:09:01+00:00,318.7546,13.8,13.29,47.84626,-54.09684
2021-07-12 12:19:00+00:00,324.7064,13.7,13.68,47.84626,-54.09684
2021-07-12 12:29:00+00:00,326.3713,13.7,13.68,47.84626,-54.09684
2021-07-12 12:39:00+00:00,323.793,13.6,13.68,47.84626,-54.09684
2021-07-12 12:49:00+00:00,327.898,13.4,13.68,47.84626,-54.09684
2021-07-12 12:59:00+00:00,329.2463,13.4,13.68,47.84626,-54.09684
2021-07-12 13:09:00+00:00,328.338,13.4,13.68,47.84626,-54.09684
2021-07-12 13:19:00+00:00,332.5129,13.46,14.32,47.84626,-54.09684
2021-07-12 13:29:00+00:00,334.5513,13.5,14.32,47.84626,-54.09684
2021-07-12 13:39:00+00:00,326.783,13.5,14.32,47.84626,-54.09684
2021-07-12 13:49:00+00:00,319.7947,13.6,14.32,47.84626,-54.09684
2021-07-12 13:59:00+00:00,321.223,13.6,14.32,47.84626,-54.09684
2021-07-12 14:09:00+00:00,322.1313,13.6,14.32,47.84626,-54.09684
2021-07-12 14:19:01+00:00,312.948,13.6,14.4,47.84626,-54.09684
2021-07-12 14:29:01+00:00,309.0046,13.67,14.4,47.84626,-54.09684
2021-07-12 14:39:01+00:00,311.08299999999997,13.69,14.4,47.84626,-54.09684
2021-07-12 14:49:01+00:00,312.1614,13.68,14.4,47.84626,-54.09684
2021-07-12 14:59:01+00:00,308.4363,13.67,14.4,47.84626,-54.09684
2021-07-12 15:09:01+00:00,305.408,13.8,14.4,47.84626,-54.09684
2021-07-12 15:19:01+00:00,301.278,13.9,14.32,47.84626,-54.09684
2021-07-12 15:29:01+00:00,297.0047,13.94,14.32,47.84626,-54.09684
2021-07-12 15:39:01+00:00,288.5064,14.0,14.32,47.84626,-54.09684
2021-07-12 15:49:01+00:00,277.7781,14.08,14.32,47.84626,-54.09684
2021-07-12 15:59:01+00:00,270.2881,14.1,14.32,47.84626,-54.09684
2021-07-12 16:09:01+00:00,263.5514,14.17,14.32,47.84626,-54.09684
2021-07-12 16:19:01+00:00,256.1631,14.2,14.24,47.84626,-54.09684
2021-07-12 16:29:01+00:00,249.7531,14.2,14.24,47.84626,-54.09684
2021-07-12 16:39:01+00:00,249.5547,14.2,14.24,47.84626,-54.09684
2021-07-12 16:49:01+00:00,241.4014,14.2,14.24,47.84626,-54.09684
2021-07-12 16:59:01+00:00,231.2681,14.2,14.24,47.84626,-54.09684
2021-07-12 17:09:01+00:00,226.2397,14.21,14.24,47.84626,-54.09684
2021-07-12 17:19:01+00:00,223.2414,14.28,14.08,47.84626,-54.09684
2021-07-12 17:29:01+00:00,212.5981,14.3,14.08,47.84626,-54.09684
2021-07-12 17:39:01+00:00,202.7598,14.35,14.08,47.84626,-54.09684
2021-07-12 17:49:01+00:00,198.3698,14.4,14.08,47.84626,-54.09684
2021-07-12 17:59:01+00:00,197.4348,14.3,14.08,47.84626,-54.09684
2021-07-12 18:09:01+00:00,195.3665,14.1,14.08,47.84626,-54.09684
2021-07-12 18:19:01+00:00,194.8298,14.0,13.92,47.84626,-54.09684
2021-07-12 18:29:01+00:00,195.8731,13.9,13.92,47.84626,-54.09684
2021-07-12 18:39:01+00:00,189.2781,13.9,13.92,47.84626,-54.09684
2021-07-12 18:49:01+00:00,184.8981,14.0,13.92,47.84626,-54.09684
2021-07-12 18:59:01+00:00,187.5931,14.08,13.92,47.84626,-54.09684
2021-07-12 19:09:01+00:00,188.9131,14.08,13.92,47.84626,-54.09684
2021-07-12 19:19:01+00:00,187.2564,14.03,13.76,47.84626,-54.09684
2021-07-12 19:29:01+00:00,186.2248,14.07,13.76,47.84626,-54.09684
2021-07-12 19:39:01+00:00,187.3031,14.08,13.76,47.84626,-54.09684
2021-07-12 19:49:01+00:00,188.5665,14.08,13.76,47.84626,-54.09684
2021-07-12 19:59:01+00:00,194.7932,14.1,13.76,47.84626,-54.09684
2021-07-12 20:09:01+00:00,199.5481,14.1,13.76,47.84626,-54.09684
2021-07-12 20:19:01+00:00,200.6331,14.12,13.6,47.84626,-54.09684
2021-07-12 20:29:01+00:00,207.3298,14.18,13.6,47.84626,-54.09684
2021-07-12 20:39:01+00:00,218.2281,14.2,13.6,47.84626,-54.09684
2021-07-12 20:49:01+00:00,219.2415,14.2,13.6,47.84626,-54.09684
2021-07-12 20:59:01+00:00,216.4864,14.2,13.6,47.84626,-54.09684
2021-07-12 21:09:01+00:00,224.0014,14.23,13.6,47.84626,-54.09684
2021-07-12 21:19:01+00:00,233.2481,14.24,13.6,47.84626,-54.09684
2021-07-12 21:29:01+00:00,232.7481,14.27,13.6,47.84626,-54.09684
2021-07-12 21:39:01+00:00,234.1798,14.29,13.6,47.84626,-54.09684
2021-07-12 21:49:01+00:00,241.8514,14.3,13.6,47.84626,-54.09684
2021-07-12 21:59:01+00:00,246.4814,14.4,13.6,47.84626,-54.09684
2021-07-12 22:09:01+00:00,245.6231,14.56,13.6,47.84626,-54.09684
2021-07-12 22:19:01+00:00,249.468,14.63,13.53,47.84626,-54.09684
2021-07-12 22:29:01+00:00,256.8631,14.6,13.53,47.84626,-54.09684
2021-07-12 22:39:01+00:00,260.4264,14.4,13.53,47.84626,-54.09684
2021-07-12 22:49:01+00:00,263.998,14.38,13.53,47.84626,-54.09684
2021-07-12 22:59:01+00:00,270.0464,14.54,13.53,47.84626,-54.09684
2021-07-12 23:09:01+00:00,276.118,14.57,13.53,47.84626,-54.09684
2021-07-12 23:19:01+00:00,283.5114,14.4,13.21,47.84626,-54.09684
2021-07-12 23:29:01+00:00,289.4114,14.4,13.21,47.84626,-54.09684
2021-07-12 23:39:01+00:00,297.3614,14.4,13.21,47.84626,-54.09684
2021-07-12 23:49:01+00:00,304.553,14.45,13.21,47.84626,-54.09684
2021-07-12 23:59:01+00:00,313.2097,14.4,13.21,47.84626,-54.09684
